カタログに戻る

THOR ABLESTAR R/B

運用中LEO
NORAD 204·ROCKET BODY·🇺🇸 United States

打ち上げ Nov 15, 1961 から Cape Canaveral Space Force Station

Loading…

次のパス (今後24時間)

TLE

最新Source: Space-Track

元期: Sep 5, 2026, 08:08 UTC

1 00204U 61031C   26248.33904777  .00000049  00000-0  29240-4 0  9993
2 00204  32.4438  15.4006 0098566 202.4091 157.2205 13.65086596233986

AllMySatでTHOR ABLESTAR R/Bをリアルタイム追跡

Download on the App Store